Starlink 11574

operational
NORAD ID: 63010 Int'l Des: 2025-032 Owner: SPXS Country: US Constellation: starlink
LEOCIRCULAR

Über Starlink 11574

Beschreibung wird geladen...

Live-Position

3D-Globus wird geladen...

Nächste Überflüge

Höhenverlauf

Altitude vs Time

uPlot chart will show altitude changes over time

Zweizeiliger Elementsatz

1 63010U 25032F 25351.86861345 .00333266 00000-0 24835-2 0 9996
2 63010 42.9989 328.6958 0001655 225.6298 134.4435 15.70978814 49349
Epoch: 17. Dez. 2025 • Age: 12 hours

Aktueller Status

Höhe 358.6 km
Geschwindigkeit 7.69 km/s
Subsatellitenpunkt -15.85°S, 86.51°E
Startdatum 15. Feb. 2025
Alter 0.8 years
Typ internet

Technische Details

Klassifizierung Payload
Masse 960.00 kg
Trockenmasse 910.00 kg
Gesamtmasse 960.00 kg
Länge 0.30 m
Durchmesser 4.10 m
Spannweite 29.00 m
Form Box + pan
Hersteller SPXS
Bus-Typ Starlink V2MD
Phasenstatus In Orbit
Besitzer/Staat SPXS/US

Große Konstellationen

Loading constellations...